Location: L�Ave Maria
(50.7161°N, 1.5911°E)
Time: 00:10:09
(UTC+00:00)

Cosmos 1743 Rocket - Pass Details

Date: 10 July 2020
Orbit: 605 x 631 km, 82.6° (Epoch: 03 August)

Event Time Altitude Azimuth Distance (km) Brightness Sun altitude
Exits shadow 23:00:38 26° 137° (SE) 1,212 4.6 -16.1°
Maximum altitude 23:02:21 37° 91° (E) 961 4.4 -16.1°
Drops below altitude 10° 23:06:23 10° 25° (NNE) 1,981 6.9 -16.3°
Sets 23:08:44 0° 17° (NNE) 2,895 8.1 -16.4°
